{"data":{"norad_id":59126,"intl_designator":"2024-043AE","name":"YAM-6","alt_names":[],"object_type":"PAYLOAD","status":"ACTIVE","operator":null,"country":"US","launch_date":"2024-03-04","launch_site_code":"AFWTR","launch_vehicle":null,"mission":null,"orbit_class":"UNKNOWN","rcs_meters":null,"size_class":null,"mass_kg":null,"dimensions":null,"purposes":[],"wikipedia_slug":null,"has_3d_model":false,"image_url":null,"decayed_at":null,"tle_current":{"epoch":"2026-09-22T15:38:30.014592Z","epoch_age_seconds":72142,"freshness":"FRESH","line1":"1 59126U 24043AE  26265.65173628  .00006666  00000+0  17727-3 0  9995","line2":"2 59126  97.5694  49.6940 0006837 234.7103 125.3503 15.38567818142290","mean_motion":15.38567818,"eccentricity":0.0006837,"inclination_deg":97.5694,"raan_deg":49.694,"arg_perigee_deg":234.7103,"mean_anomaly_deg":125.3503,"bstar":0.00017727,"rev_number":14229,"period_min":93.593534399535,"perigee_km":445.67494702978,"apogee_km":455.01221137378,"semimajor_km":6828.4805792018,"source":"CELESTRAK","updated_at":"2026-09-23T09:00:19.178561Z"}}}